Time,TemperatureF,DewpointF,PressureIn,WindDirection,WindDirectionDegrees,WindSpeedMPH,WindSpeedGustMPH,Humidity,HourlyPrecipIn,Conditions,Clouds,dailyrainin,SoftwareType,DateUTC
2013-01-04 09:02:00,21.7,17.0,26.65,NW,315,15.8,15.8,82,0.00,,,0.00,WUHU216HW,2013-01-04 14:02:00,
2013-01-04 09:07:00,21.9,17.2,26.65,NW,315,18.5,18.5,82,0.00,,,0.00,WUHU216HW,2013-01-04 14:07:00,
2013-01-04 09:12:00,21.9,17.2,26.65,NW,315,20.5,20.5,82,0.00,,,0.00,WUHU216HW,2013-01-04 14:12:00,
2013-01-04 09:17:00,22.2,17.6,26.66,NW,315,18.3,20.5,82,0.00,,,0.00,WUHU216HW,2013-01-04 14:17:00,
2013-01-04 09:22:00,22.1,17.4,26.65,WNW,293,14.0,18.3,82,0.00,,,0.00,WUHU216HW,2013-01-04 14:22:00,
2013-01-04 09:27:00,22.4,17.7,26.66,NW,315,19.6,19.6,82,0.00,,,0.00,WUHU216HW,2013-01-04 14:27:00,
2013-01-04 09:32:00,22.4,17.5,26.66,WNW,293,18.1,19.6,81,0.00,,,0.00,WUHU216HW,2013-01-04 14:32:00,
2013-01-04 09:37:00,22.6,17.6,26.66,NNW,338,13.4,18.1,81,0.00,,,0.00,WUHU216HW,2013-01-04 14:37:00,
2013-01-04 09:42:00,22.8,17.8,26.66,West,270,17.8,19.6,81,0.00,,,0.00,WUHU216HW,2013-01-04 14:42:00,
2013-01-04 09:47:00,23.0,17.7,26.66,NW,315,18.1,19.6,80,0.00,,,0.00,WUHU216HW,2013-01-04 14:47:00,
2013-01-04 09:52:00,23.0,17.7,26.66,NW,315,17.8,18.1,80,0.00,,,0.00,WUHU216HW,2013-01-04 14:52:00,
2013-01-04 09:57:00,23.3,18.1,26.66,West,270,12.0,18.1,80,0.00,,,0.00,WUHU216HW,2013-01-04 14:57:00,
2013-01-04 10:02:00,23.5,18.3,26.66,NW,315,12.9,17.8,80,0.00,,,0.00,WUHU216HW,2013-01-04 15:02:00,
2013-01-04 10:07:00,23.7,18.5,26.67,WNW,293,7.6,14.3,80,0.00,,,0.00,WUHU216HW,2013-01-04 15:07:00,
2013-01-04 10:12:00,23.9,18.6,26.67,WNW,293,16.1,16.1,80,0.00,,,0.00,WUHU216HW,2013-01-04 15:12:00,
2013-01-04 10:17:00,24.0,18.5,26.68,NNW,338,10.7,16.1,79,0.00,,,0.00,WUHU216HW,2013-01-04 15:17:00,
2013-01-04 10:22:00,24.2,18.7,26.67,NW,315,19.4,19.4,79,0.00,,,0.00,WUHU216HW,2013-01-04 15:22:00,
2013-01-04 10:27:00,24.4,18.5,26.67,West,270,7.6,19.4,78,0.00,,,0.00,WUHU216HW,2013-01-04 15:27:00,
2013-01-04 10:32:00,24.6,18.7,26.67,WNW,293,14.5,19.4,78,0.00,,,0.00,WUHU216HW,2013-01-04 15:32:00,
2013-01-04 10:37:00,24.9,19.0,26.66,WNW,293,17.8,17.8,78,0.00,,,0.00,WUHU216HW,2013-01-04 15:37:00,
2013-01-04 10:42:00,24.9,18.7,26.67,WNW,293,15.8,17.8,77,0.00,,,0.00,WUHU216HW,2013-01-04 15:42:00,
2013-01-04 10:47:00,25.1,18.9,26.66,WNW,293,17.4,17.8,77,0.00,,,0.00,WUHU216HW,2013-01-04 15:47:00,
2013-01-04 10:52:00,25.3,18.7,26.67,WNW,293,16.5,17.4,76,0.00,,,0.00,WUHU216HW,2013-01-04 15:52:00,
2013-01-04 10:57:00,25.5,18.9,26.67,NW,315,13.1,16.5,76,0.00,,,0.00,WUHU216HW,2013-01-04 15:57:00,
2013-01-04 11:03:00,25.7,19.1,26.66,NW,315,12.9,16.5,76,0.00,,,0.00,WUHU216HW,2013-01-04 16:03:00,
2013-01-04 11:08:00,26.0,19.1,26.66,NW,315,15.2,20.5,75,0.00,,,0.00,WUHU216HW,2013-01-04 16:08:00,
2013-01-04 11:13:00,26.2,19.0,26.67,West,270,13.6,20.5,74,0.00,,,0.00,WUHU216HW,2013-01-04 16:13:00,
2013-01-04 11:18:00,26.4,19.1,26.66,WNW,293,13.6,16.1,74,0.00,,,0.00,WUHU216HW,2013-01-04 16:18:00,
2013-01-04 11:23:00,26.6,19.0,26.66,NW,315,16.5,16.5,73,0.00,,,0.00,WUHU216HW,2013-01-04 16:23:00,
2013-01-04 11:28:00,26.9,19.4,26.66,WNW,293,20.1,20.1,73,0.00,,,0.00,WUHU216HW,2013-01-04 16:28:00,
2013-01-04 11:33:00,27.1,18.9,26.66,WNW,293,8.9,20.1,71,0.00,,,0.00,WUHU216HW,2013-01-04 16:33:00,
2013-01-04 11:38:00,27.3,19.1,26.66,NW,315,19.2,19.2,71,0.00,,,0.00,WUHU216HW,2013-01-04 16:38:00,
2013-01-04 11:43:00,27.5,19.1,26.65,NW,315,14.0,19.2,71,0.00,,,0.00,WUHU216HW,2013-01-04 16:43:00,
2013-01-04 11:48:00,27.6,19.5,26.66,NW,315,14.3,19.0,71,0.00,,,0.00,WUHU216HW,2013-01-04 16:48:00,
2013-01-04 11:53:00,27.6,19.5,26.66,WNW,293,11.1,19.0,71,0.00,,,0.00,WUHU216HW,2013-01-04 16:53:00,
2013-01-04 11:58:00,28.0,19.5,26.65,WNW,293,14.5,18.3,70,0.00,,,0.00,WUHU216HW,2013-01-04 16:58:00,
2013-01-04 12:03:00,28.2,19.7,26.64,NW,315,16.7,17.6,70,0.00,,,0.00,WUHU216HW,2013-01-04 17:03:00,
2013-01-04 12:08:00,28.2,19.7,26.64,NNW,338,16.7,17.6,70,0.00,,,0.00,WUHU216HW,2013-01-04 17:08:00,
2013-01-04 12:13:00,28.2,19.4,26.64,NNW,338,12.0,16.7,69,0.00,,,0.00,WUHU216HW,2013-01-04 17:13:00,
2013-01-04 12:18:00,28.5,19.7,26.64,NW,315,9.1,16.5,69,0.00,,,0.00,WUHU216HW,2013-01-04 17:18:00,
2013-01-04 12:23:00,28.5,19.7,26.64,NNW,338,13.6,16.5,69,0.00,,,0.00,WUHU216HW,2013-01-04 17:23:00,
2013-01-04 12:28:00,28.9,19.7,26.64,NW,315,12.7,22.3,68,0.00,,,0.00,WUHU216HW,2013-01-04 17:28:00,
2013-01-04 12:34:00,29.1,19.8,26.64,WNW,293,9.6,22.3,68,0.00,,,0.00,WUHU216HW,2013-01-04 17:34:00,
2013-01-04 12:39:00,29.1,19.8,26.64,NNW,338,13.6,15.6,68,0.00,,,0.00,WUHU216HW,2013-01-04 17:39:00,
2013-01-04 12:44:00,29.3,20.0,26.63,WNW,293,19.6,19.6,68,0.00,,,0.00,WUHU216HW,2013-01-04 17:44:00,
2013-01-04 12:49:00,29.4,20.1,26.63,NW,315,13.8,19.6,68,0.00,,,0.00,WUHU216HW,2013-01-04 17:49:00,
2013-01-04 12:54:00,29.4,19.8,26.63,NW,315,15.6,17.2,67,0.00,,,0.00,WUHU216HW,2013-01-04 17:54:00,
2013-01-04 12:59:00,29.6,19.9,26.63,NW,315,12.9,15.8,67,0.00,,,0.00,WUHU216HW,2013-01-04 17:59:00,
2013-01-04 13:04:00,29.8,20.1,26.63,WNW,293,17.0,17.0,67,0.00,,,0.00,WUHU216HW,2013-01-04 18:04:00,
2013-01-04 13:09:00,30.0,19.9,26.63,WNW,293,17.6,17.6,66,0.00,,,0.00,WUHU216HW,2013-01-04 18:09:00,
2013-01-04 13:14:00,30.0,19.9,26.63,NNW,338,12.7,17.6,66,0.00,,,0.00,WUHU216HW,2013-01-04 18:14:00,
2013-01-04 13:19:00,30.0,19.9,26.62,NW,315,17.4,17.6,66,0.00,,,0.00,WUHU216HW,2013-01-04 18:19:00,
2013-01-04 13:24:00,30.0,19.5,26.62,NW,315,19.0,19.0,65,0.00,,,0.00,WUHU216HW,2013-01-04 18:24:00,
2013-01-04 13:29:00,30.2,19.7,26.61,WNW,293,13.4,19.0,65,0.00,,,0.00,WUHU216HW,2013-01-04 18:29:00,
2013-01-04 13:34:00,30.2,19.7,26.61,NW,315,11.4,19.0,65,0.00,,,0.00,WUHU216HW,2013-01-04 18:34:00,
2013-01-04 13:39:00,30.3,19.5,26.62,NNW,338,8.9,13.4,64,0.00,,,0.00,WUHU216HW,2013-01-04 18:39:00,
2013-01-04 13:44:00,30.5,19.7,26.61,NW,315,16.3,17.2,64,0.00,,,0.00,WUHU216HW,2013-01-04 18:44:00,
2013-01-04 13:49:00,30.5,19.7,26.61,NNW,338,10.2,17.2,64,0.00,,,0.00,WUHU216HW,2013-01-04 18:49:00,
2013-01-04 13:54:00,30.7,19.9,26.61,NW,315,15.8,16.3,64,0.00,,,0.00,WUHU216HW,2013-01-04 18:54:00,
2013-01-04 13:59:00,30.7,19.9,26.60,WNW,293,17.0,19.0,64,0.00,,,0.00,WUHU216HW,2013-01-04 18:59:00,
2013-01-04 14:04:00,30.7,19.9,26.60,NW,315,11.8,19.0,64,0.00,,,0.00,WUHU216HW,2013-01-04 19:04:00,
2013-01-04 14:09:00,30.9,20.1,26.61,NW,315,9.3,17.0,64,0.00,,,0.00,WUHU216HW,2013-01-04 19:09:00,
2013-01-04 14:14:00,31.1,19.9,26.61,NW,315,14.9,14.9,63,0.00,,,0.00,WUHU216HW,2013-01-04 19:14:00,
2013-01-04 14:19:00,31.2,19.4,26.61,NW,315,16.3,16.3,61,0.00,,,0.00,WUHU216HW,2013-01-04 19:19:00,
2013-01-04 14:24:00,31.2,19.4,26.60,NW,315,17.0,17.0,61,0.00,,,0.00,WUHU216HW,2013-01-04 19:24:00,
2013-01-04 14:29:00,31.2,19.4,26.61,NW,315,15.4,17.0,61,0.00,,,0.00,WUHU216HW,2013-01-04 19:29:00,
2013-01-04 14:34:00,31.2,19.4,26.61,NW,315,17.2,17.2,61,0.00,,,0.00,WUHU216HW,2013-01-04 19:34:00,
2013-01-04 14:39:00,31.2,19.0,26.61,NNW,338,12.9,17.2,60,0.00,,,0.00,WUHU216HW,2013-01-04 19:39:00,
2013-01-04 14:44:00,31.1,19.0,26.61,NW,315,13.4,16.5,60,0.00,,,0.00,WUHU216HW,2013-01-04 19:44:00,
2013-01-04 14:49:00,30.9,18.6,26.61,NW,315,17.2,17.2,60,0.00,,,0.00,WUHU216HW,2013-01-04 19:49:00,
2013-01-04 14:54:00,30.7,18.5,26.62,WNW,293,22.1,22.1,60,0.00,,,0.00,WUHU216HW,2013-01-04 19:54:00,
2013-01-04 14:59:00,30.5,18.3,26.62,WNW,293,13.6,22.1,60,0.00,,,0.00,WUHU216HW,2013-01-04 19:59:00,
2013-01-04 15:04:00,30.3,18.1,26.62,NW,315,12.3,14.0,60,0.00,,,0.00,WUHU216HW,2013-01-04 20:04:00,
2013-01-04 15:09:00,30.0,18.1,26.63,NNW,338,16.7,16.7,61,0.00,,,0.00,WUHU216HW,2013-01-04 20:09:00,
2013-01-04 15:14:00,30.0,18.1,26.62,NW,315,18.1,18.1,61,0.00,,,0.00,WUHU216HW,2013-01-04 20:14:00,
2013-01-04 15:19:00,29.8,18.3,26.62,NW,315,15.2,18.1,62,0.00,,,0.00,WUHU216HW,2013-01-04 20:19:00,
2013-01-04 15:24:00,29.8,18.7,26.62,NW,315,18.5,18.5,63,0.00,,,0.00,WUHU216HW,2013-01-04 20:24:00,
2013-01-04 15:29:00,29.6,18.5,26.62,NNW,338,12.3,19.6,63,0.00,,,0.00,WUHU216HW,2013-01-04 20:29:00,
2013-01-04 15:34:00,29.4,18.7,26.63,NNW,338,15.2,19.6,64,0.00,,,0.00,WUHU216HW,2013-01-04 20:34:00,
2013-01-04 15:39:00,29.4,18.7,26.63,NNW,338,14.3,17.2,64,0.00,,,0.00,WUHU216HW,2013-01-04 20:39:00,
2013-01-04 15:44:00,29.4,18.7,26.63,NW,315,16.5,18.1,64,0.00,,,0.00,WUHU216HW,2013-01-04 20:44:00,
2013-01-04 15:49:00,29.3,18.5,26.63,NW,315,22.8,22.8,64,0.00,,,0.00,WUHU216HW,2013-01-04 20:49:00,
2013-01-04 15:54:00,29.1,18.4,26.63,WNW,293,21.0,22.8,64,0.00,,,0.00,WUHU216HW,2013-01-04 20:54:00,
2013-01-04 15:59:00,28.9,18.6,26.64,NW,315,16.7,21.4,65,0.00,,,0.00,WUHU216HW,2013-01-04 20:59:00,
2013-01-04 16:04:00,28.7,18.4,26.64,NW,315,17.4,19.4,65,0.00,,,0.00,WUHU216HW,2013-01-04 21:04:00,
2013-01-04 16:09:00,28.7,18.8,26.64,NW,315,12.0,19.4,66,0.00,,,0.00,WUHU216HW,2013-01-04 21:09:00,
2013-01-04 16:14:00,28.5,18.6,26.64,NW,315,13.1,17.6,66,0.00,,,0.00,WUHU216HW,2013-01-04 21:14:00,
2013-01-04 16:19:00,28.5,19.0,26.64,NW,315,11.1,17.6,67,0.00,,,0.00,WUHU216HW,2013-01-04 21:19:00,
2013-01-04 16:25:00,28.5,19.0,26.64,NNW,338,9.8,13.1,67,0.00,,,0.00,WUHU216HW,2013-01-04 21:25:00,
2013-01-04 16:30:00,28.5,18.8,26.65,NNW,338,11.8,11.8,67,0.00,,,0.00,WUHU216HW,2013-01-04 21:30:00,
2013-01-04 16:35:00,28.2,18.3,26.64,WNW,293,10.2,11.8,66,0.00,,,0.00,WUHU216HW,2013-01-04 21:35:00,
2013-01-04 16:40:00,28.2,18.6,26.64,NW,315,8.5,11.8,67,0.00,,,0.00,WUHU216HW,2013-01-04 21:40:00,
2013-01-04 16:45:00,28.2,18.3,26.63,WNW,293,20.3,20.3,66,0.00,,,0.00,WUHU216HW,2013-01-04 21:45:00,
2013-01-04 16:50:00,28.2,18.3,26.64,NW,315,10.7,20.3,66,0.00,,,0.00,WUHU216HW,2013-01-04 21:50:00,
2013-01-04 16:55:00,28.2,18.3,26.64,NNW,338,12.5,20.3,66,0.00,,,0.00,WUHU216HW,2013-01-04 21:55:00,
2013-01-04 17:00:00,28.0,18.5,26.64,NW,315,12.9,16.3,67,0.00,,,0.00,WUHU216HW,2013-01-04 22:00:00,
2013-01-04 17:05:00,28.0,18.5,26.64,NW,315,9.1,13.1,67,0.00,,,0.00,WUHU216HW,2013-01-04 22:05:00,
2013-01-04 17:10:00,27.6,18.1,26.64,NW,315,11.8,17.4,67,0.00,,,0.00,WUHU216HW,2013-01-04 22:10:00,
2013-01-04 17:15:00,27.6,18.1,26.64,NNW,338,11.4,17.4,67,0.00,,,0.00,WUHU216HW,2013-01-04 22:15:00,
2013-01-04 17:20:00,27.6,18.1,26.65,NNW,338,10.5,12.3,67,0.00,,,0.00,WUHU216HW,2013-01-04 22:20:00,
2013-01-04 17:25:00,27.5,18.3,26.65,NW,315,15.2,15.2,68,0.00,,,0.00,WUHU216HW,2013-01-04 22:25:00,
2013-01-04 17:30:00,27.5,18.3,26.65,NW,315,10.9,15.2,68,0.00,,,0.00,WUHU216HW,2013-01-04 22:30:00,
2013-01-04 17:35:00,27.3,18.5,26.65,WNW,293,19.2,19.2,69,0.00,,,0.00,WUHU216HW,2013-01-04 22:35:00,
2013-01-04 17:40:00,27.1,18.3,26.65,NW,315,11.8,19.2,69,0.00,,,0.00,WUHU216HW,2013-01-04 22:40:00,
2013-01-04 17:45:00,27.1,18.3,26.65,WNW,293,17.2,17.2,69,0.00,,,0.00,WUHU216HW,2013-01-04 22:45:00,
2013-01-04 17:50:00,26.9,18.1,26.66,WNW,293,12.9,17.2,69,0.00,,,0.00,WUHU216HW,2013-01-04 22:50:00,
2013-01-04 17:55:00,26.7,18.3,26.66,NW,315,16.1,17.2,70,0.00,,,0.00,WUHU216HW,2013-01-04 22:55:00,
2013-01-04 18:00:00,26.7,18.3,26.67,WNW,293,10.9,16.1,70,0.00,,,0.00,WUHU216HW,2013-01-04 23:00:00,
2013-01-04 18:05:00,26.6,18.1,26.67,NW,315,10.0,16.1,70,0.00,,,0.00,WUHU216HW,2013-01-04 23:05:00,
2013-01-04 18:10:00,26.4,18.2,26.66,WNW,293,10.2,17.4,71,0.00,,,0.00,WUHU216HW,2013-01-04 23:10:00,
2013-01-04 18:15:00,26.4,18.2,26.66,WNW,293,12.0,17.4,71,0.00,,,0.00,WUHU216HW,2013-01-04 23:15:00,
2013-01-04 18:20:00,26.4,18.2,26.67,NNW,338,8.9,16.1,71,0.00,,,0.00,WUHU216HW,2013-01-04 23:20:00,
2013-01-04 18:25:00,26.2,18.0,26.67,WNW,293,10.7,16.1,71,0.00,,,0.00,WUHU216HW,2013-01-04 23:25:00,
2013-01-04 18:30:00,26.2,18.0,26.67,WNW,293,11.4,15.4,71,0.00,,,0.00,WUHU216HW,2013-01-04 23:30:00,
2013-01-04 18:35:00,26.0,17.9,26.67,NW,315,10.2,18.1,71,0.00,,,0.00,WUHU216HW,2013-01-04 23:35:00,
2013-01-04 18:40:00,25.8,18.0,26.67,NW,315,10.2,18.1,72,0.00,,,0.00,WUHU216HW,2013-01-04 23:40:00,
2013-01-04 18:45:00,25.8,18.0,26.68,WNW,293,13.4,16.7,72,0.00,,,0.00,WUHU216HW,2013-01-04 23:45:00,
2013-01-04 18:50:00,25.7,17.8,26.69,WNW,293,11.1,16.7,72,0.00,,,0.00,WUHU216HW,2013-01-04 23:50:00,
2013-01-04 18:55:00,25.7,17.8,26.68,NW,315,12.0,19.2,72,0.00,,,0.00,WUHU216HW,2013-01-04 23:55:00,
2013-01-04 19:00:00,25.7,17.8,26.69,NW,315,11.1,19.2,72,0.00,,,0.00,WUHU216HW,2013-01-05 00:00:00,
2013-01-04 19:05:00,25.5,17.6,26.68,WNW,293,12.5,14.5,72,0.00,,,0.00,WUHU216HW,2013-01-05 00:05:00,
2013-01-04 19:11:00,25.5,17.6,26.67,NW,315,15.6,18.1,72,0.00,,,0.00,WUHU216HW,2013-01-05 00:11:00,
2013-01-04 19:16:00,25.5,17.6,26.68,WNW,293,13.8,18.1,72,0.00,,,0.00,WUHU216HW,2013-01-05 00:16:00,
2013-01-04 19:21:00,25.5,17.6,26.67,NW,315,8.7,15.6,72,0.00,,,0.00,WUHU216HW,2013-01-05 00:21:00,
2013-01-04 19:26:00,25.5,17.6,26.67,WNW,293,10.9,12.7,72,0.00,,,0.00,WUHU216HW,2013-01-05 00:26:00,
2013-01-04 19:31:00,25.3,17.8,26.67,WNW,293,12.0,21.9,73,0.00,,,0.00,WUHU216HW,2013-01-05 00:31:00,
2013-01-04 19:36:00,25.3,17.8,26.67,NNW,338,10.0,21.9,73,0.00,,,0.00,WUHU216HW,2013-01-05 00:36:00,
2013-01-04 19:41:00,25.3,17.8,26.67,NNW,338,17.2,19.6,73,0.00,,,0.00,WUHU216HW,2013-01-05 00:41:00,
2013-01-04 19:46:00,25.3,17.8,26.66,WNW,293,15.6,19.6,73,0.00,,,0.00,WUHU216HW,2013-01-05 00:46:00,
2013-01-04 19:51:00,25.3,17.8,26.67,WNW,293,16.7,18.5,73,0.00,,,0.00,WUHU216HW,2013-01-05 00:51:00,
2013-01-04 19:56:00,25.5,17.9,26.67,NW,315,16.3,16.7,73,0.00,,,0.00,WUHU216HW,2013-01-05 00:56:00,
2013-01-04 20:01:00,25.5,17.9,26.67,West,270,13.4,16.7,73,0.00,,,0.00,WUHU216HW,2013-01-05 01:01:00,
2013-01-04 20:06:00,25.5,17.9,26.67,WNW,293,13.6,13.6,73,0.00,,,0.00,WUHU216HW,2013-01-05 01:06:00,
2013-01-04 20:11:00,25.5,17.9,26.68,NNW,338,14.7,14.7,73,0.00,,,0.00,WUHU216HW,2013-01-05 01:11:00,
2013-01-04 20:16:00,25.5,18.3,26.68,NNW,338,9.8,17.8,74,0.00,,,0.00,WUHU216HW,2013-01-05 01:16:00,
2013-01-04 20:21:00,25.7,18.1,26.68,WNW,293,13.1,17.8,73,0.00,,,0.00,WUHU216HW,2013-01-05 01:21:00,
2013-01-04 20:26:00,25.7,18.1,26.68,NW,315,18.3,20.3,73,0.00,,,0.00,WUHU216HW,2013-01-05 01:26:00,
2013-01-04 20:31:00,25.7,18.1,26.67,WNW,293,23.0,23.0,73,0.00,,,0.00,WUHU216HW,2013-01-05 01:31:00,
2013-01-04 20:36:00,25.7,18.1,26.68,NW,315,12.0,23.0,73,0.00,,,0.00,WUHU216HW,2013-01-05 01:36:00,
2013-01-04 20:41:00,25.5,17.9,26.68,NW,315,17.2,17.4,73,0.00,,,0.00,WUHU216HW,2013-01-05 01:41:00,
2013-01-04 20:46:00,25.5,17.9,26.68,NW,315,16.5,18.1,73,0.00,,,0.00,WUHU216HW,2013-01-05 01:46:00,
2013-01-04 20:51:00,25.5,17.9,26.68,NW,315,19.6,19.6,73,0.00,,,0.00,WUHU216HW,2013-01-05 01:51:00,
2013-01-04 20:56:00,25.5,17.9,26.68,NW,315,13.8,19.6,73,0.00,,,0.00,WUHU216HW,2013-01-05 01:56:00,
2013-01-04 21:01:00,25.5,17.9,26.68,NW,315,14.3,19.0,73,0.00,,,0.00,WUHU216HW,2013-01-05 02:01:00,
2013-01-04 21:06:00,25.3,17.8,26.68,WNW,293,18.5,18.5,73,0.00,,,0.00,WUHU216HW,2013-01-05 02:06:00,
2013-01-04 21:11:00,25.3,17.8,26.68,NNW,338,17.0,18.5,73,0.00,,,0.00,WUHU216HW,2013-01-05 02:11:00,
2013-01-04 21:16:00,25.1,17.3,26.68,NW,315,21.4,21.4,72,0.00,,,0.00,WUHU216HW,2013-01-05 02:16:00,
2013-01-04 21:21:00,24.9,17.1,26.68,NW,315,23.2,23.2,72,0.00,,,0.00,WUHU216HW,2013-01-05 02:21:00,
2013-01-04 21:26:00,24.9,17.1,26.68,WNW,293,17.0,23.2,72,0.00,,,0.00,WUHU216HW,2013-01-05 02:26:00,
2013-01-04 21:31:00,24.9,17.1,26.68,NW,315,15.4,23.0,72,0.00,,,0.00,WUHU216HW,2013-01-05 02:31:00,
2013-01-04 21:36:00,24.6,16.8,26.68,NW,315,19.0,19.0,72,0.00,,,0.00,WUHU216HW,2013-01-05 02:36:00,
2013-01-04 21:41:00,24.6,16.8,26.68,NNW,338,12.7,19.0,72,0.00,,,0.00,WUHU216HW,2013-01-05 02:41:00,
2013-01-04 21:47:00,24.6,16.8,26.68,NW,315,14.7,17.6,72,0.00,,,0.00,WUHU216HW,2013-01-05 02:47:00,
2013-01-04 21:52:00,24.4,16.9,26.68,West,270,12.9,17.6,73,0.00,,,0.00,WUHU216HW,2013-01-05 02:52:00,
2013-01-04 21:57:00,24.4,16.9,26.68,NNW,338,14.0,14.0,73,0.00,,,0.00,WUHU216HW,2013-01-05 02:57:00,
2013-01-04 22:02:00,24.4,16.9,26.68,NW,315,16.5,16.5,73,0.00,,,0.00,WUHU216HW,2013-01-05 03:02:00,
2013-01-04 22:07:00,24.0,16.6,26.68,WNW,293,12.3,16.5,73,0.00,,,0.00,WUHU216HW,2013-01-05 03:07:00,
2013-01-04 22:12:00,24.0,16.6,26.68,NW,315,12.9,16.3,73,0.00,,,0.00,WUHU216HW,2013-01-05 03:12:00,
2013-01-04 22:17:00,24.0,16.6,26.68,NNW,338,15.8,21.9,73,0.00,,,0.00,WUHU216HW,2013-01-05 03:17:00,
2013-01-04 22:22:00,24.0,16.6,26.68,NW,315,9.8,21.9,73,0.00,,,0.00,WUHU216HW,2013-01-05 03:22:00,
2013-01-04 22:27:00,23.9,16.7,26.68,NW,315,11.4,11.4,74,0.00,,,0.00,WUHU216HW,2013-01-05 03:27:00,
2013-01-04 22:32:00,23.9,16.7,26.68,WNW,293,10.7,16.5,74,0.00,,,0.00,WUHU216HW,2013-01-05 03:32:00,
2013-01-04 22:37:00,23.9,16.7,26.68,NW,315,13.1,16.5,74,0.00,,,0.00,WUHU216HW,2013-01-05 03:37:00,
2013-01-04 22:42:00,23.7,16.6,26.67,NW,315,10.5,14.7,74,0.00,,,0.00,WUHU216HW,2013-01-05 03:42:00,
2013-01-04 22:47:00,23.7,16.6,26.67,NW,315,13.6,18.1,74,0.00,,,0.00,WUHU216HW,2013-01-05 03:47:00,
2013-01-04 22:52:00,23.7,16.6,26.67,WNW,293,14.5,18.1,74,0.00,,,0.00,WUHU216HW,2013-01-05 03:52:00,
2013-01-04 22:57:00,23.5,16.4,26.67,NW,315,14.3,14.5,74,0.00,,,0.00,WUHU216HW,2013-01-05 03:57:00,
2013-01-04 23:02:00,23.5,16.7,26.67,NW,315,10.2,14.5,75,0.00,,,0.00,WUHU216HW,2013-01-05 04:02:00,
2013-01-04 23:07:00,23.5,16.4,26.67,NW,315,12.7,15.2,74,0.00,,,0.00,WUHU216HW,2013-01-05 04:07:00,
2013-01-04 23:13:00,23.5,16.4,26.67,NW,315,16.5,17.6,74,0.00,,,0.00,WUHU216HW,2013-01-05 04:13:00,
2013-01-04 23:18:00,23.5,16.4,26.67,WNW,293,13.4,17.6,74,0.00,,,0.00,WUHU216HW,2013-01-05 04:18:00,
2013-01-04 23:23:00,23.3,16.5,26.67,WNW,293,14.7,16.5,75,0.00,,,0.00,WUHU216HW,2013-01-05 04:23:00,
2013-01-04 23:28:00,23.3,16.5,26.68,NW,315,11.4,14.7,75,0.00,,,0.00,WUHU216HW,2013-01-05 04:28:00,
2013-01-04 23:33:00,23.1,16.4,26.69,NW,315,12.3,14.7,75,0.00,,,0.00,WUHU216HW,2013-01-05 04:33:00,
2013-01-04 23:38:00,23.1,16.4,26.69,NW,315,12.3,16.7,75,0.00,,,0.00,WUHU216HW,2013-01-05 04:38:00,
2013-01-04 23:43:00,23.1,16.4,26.69,WNW,293,17.2,17.2,75,0.00,,,0.00,WUHU216HW,2013-01-05 04:43:00,
2013-01-04 23:48:00,23.1,16.7,26.68,NNW,338,15.2,18.5,76,0.00,,,0.00,WUHU216HW,2013-01-05 04:48:00,
2013-01-04 23:53:00,23.1,16.7,26.68,WNW,293,16.5,21.9,76,0.00,,,0.00,WUHU216HW,2013-01-05 04:53:00,
2013-01-04 23:58:00,23.1,16.7,26.68,NW,315,14.3,21.9,76,0.00,,,0.00,WUHU216HW,2013-01-05 04:58:00,